Wind_Speed
1 1 0 1 1 1 2 2 3 2 2 2 3 3 3 2 2 2 2 1 1 1 1 1 1 2 2 3 4 3 3 3 2 2 2 3 3 3 4 4 4 5 5
1 1 1 1 1 2 2 2 3 3 3 3 3 3 3 3 3 3 3 2 2 2 2 2 3 3 3 3 3 4 4 4 3 3 3 3 4 4 5 4 5 5 6
1 1 2 2 2 3 3 3 3 4 4 4 4 3 4 4 4 4 3 3 4 4 4 4 4 4 5 4 4 5 5 5 5 5 4 4 4 5 6 6 6 6 6
2 2 3 3 3 3 3 3 4 4 5 5 4 4 5 5 5 5 5 4 5 5 5 6 6 6 6 6 5 5 5 6 6 6 6 5 5 6 7 7 7 7 7
4 4 4 4 4 4 4 4 4 4 4 4 4 4 4 5 5 5 5 5 6 6 6 7 7 7 7 7 7 7 6 7 7 7 7 7 7 7 8 8 8 7 8
5 5 5 5 5 4 4 4 4 4 5 5 4 4 4 5 5 6 6 6 6 6 7 7 7 7 8 8 8 8 8 8 9 8 8 8 8 8 8 8 8 9 9
6 6 5 5 5 5 5 4 5 4 4 5 5 4 5 5 5 5 6 7 7 7 7 7 8 8 8 8 8 8 8 8 9 9 9 9 9 9 9 9 9 10 10
7 6 6 6 6 6 5 6 5 5 5 5 5 5 5 5 6 6 6 7 8 8 8 8 8 9 9 9 8 8 8 8 9 9 9 9 9 9 10 9 10 10 10
7 7 7 6 6 6 6 6 6 6 6 7 6 6 6 5 6 6 7 8 8 8 8 9 9 9 10 9 9 9 9 9 9 9 9 10 10 10 10 10 10 11 11
8 8 7 7 6 6 6 7 7 7 7 7 7 7 7 7 7 7 8 8 8 8 8 9 10 10 10 10 10 10 9 9 10 10 10 10 10 10 10 10 11 11 12
8 8 8 7 7 7 7 7 7 7 7 7 7 7 7 8 8 8 8 9 9 9 9 9 9 10 10 10 9 9 10 9 10 10 10 10 10 10 11 11 11 12 12
9 9 8 8 8 8 8 8 8 8 7 7 7 8 8 8 8 8 9 9 9 9 10 10 9 9 9 9 10 9 9 9 10 10 10 10 11 11 11 12 12 12 12
10 10 10 10 9 9 9 9 9 8 8 8 8 8 8 9 9 9 9 9 9 9 10 10 10 9 9 10 10 10 10 10 10 10 11 11 11 11 12 12 12 12 12
10 10 10 9 9 9 10 10 9 9 9 9 9 9 8 8 9 9 9 9 9 9 9 9 10 10 10 10 10 10 10 11 11 11 12 12 12 13 13 13 13 13 13
9 9 10 10 10 10 10 10 9 9 9 9 9 9 8 8 8 9 9 9 9 9 9 9 9 10 9 9 9 10 10 10 10 10 12 12 13 13 13 13 12 13 13
9 9 9 10 10 10 10 10 10 10 10 10 9 8 8 8 8 8 8 9 9 9 9 9 10 10 10 9 9 9 10 11 10 11 11 12 12 13 13 13 13 14 14
9 10 10 10 11 10 10 11 11 11 10 11 10 9 9 8 8 9 8 9 9 9 9 9 8 9 9 9 9 9 9 10 11 11 11 12 12 13 13 14 14 14 14
10 10 11 11 12 11 11 11 11 11 11 11 11 10 10 9 9 8 8 8 8 8 9 8 8 8 9 9 9 9 9 9 10 10 11 11 12 12 13 14 14 14 14
11 11 12 13 12 12 12 12 12 11 12 12 11 10 10 10 9 8 8 9 9 9 9 9 9 9 9 9 10 10 10 10 10 11 11 12 12 13 14 14 14 14 14
11 12 12 13 13 13 13 12 12 12 12 12 12 11 11 10 10 10 10 10 10 10 10 10 10 10 10 10 10 10 10 11 11 12 12 12 13 13 14 14 14 14 14
12 13 13 13 13 13 13 13 12 12 12 13 13 12 12 11 11 11 11 11 11 11 11 11 11 10 10 10 10 11 11 11 12 12 13 13 14 14 14 14 14 14 14
13 14 14 14 14 14 13 13 13 13 13 13 13 13 13 13 12 12 12 12 12 12 12 12 12 11 11 11 11 12 12 12 12 13 13 13 14 14 14 14 14 14 15
13 14 14 14 14 13 13 14 14 14 14 14 14 15 15 15 14 14 13 13 13 13 13 13 13 13 12 12 12 12 12 13 13 13 14 14 14 14 14 14 14 14 15
13 13 14 14 15 14 15 15 15 14 14 15 15 15 15 16 15 15 15 15 14 14 14 14 14 14 14 13 14 14 14 14 14 14 15 15 15 15 15 14 14 15 15
14 14 15 15 16 16 15 15 15 15 15 16 16 16 16 16 16 16 16 16 15 15 15 14 15 15 15 15 15 15 15 15 15 15 15 15 15 15 15 15 14 15 16
15 16 16 16 16 16 16 16 16 16 16 17 17 17 17 17 17 17 17 17 17 16 16 16 16 16 16 16 16 16 15 15 16 16 16 16 16 16 16 16 16 15 16
Wind_Direction
220 252 261 298 323 337 338 320 304 289 286 268 269 279 254 238 242 247 252 255 258 261 290 308 303 276 261 246 234 234 222 227 232 239 232 217 196 189 192 200 215 212 217
228 233 262 296 307 320 328 321 309 292 287 277 274 272 247 234 241 253 257 259 257 264 285 290 288 275 270 258 247 249 241 234 245 255 256 238 220 217 215 221 225 225 229
274 264 273 293 297 303 310 315 310 296 289 283 274 254 238 246 249 248 249 258 261 267 272 274 281 275 268 264 261 258 253 248 252 252 253 245 240 230 226 233 239 239 237
262 286 293 294 291 295 301 307 305 296 285 281 279 257 244 251 254 253 251 257 262 268 270 275 276 270 267 266 262 262 258 254 256 256 254 254 254 248 239 241 245 247 245
266 280 289 291 290 291 293 294 295 294 290 286 276 269 260 262 265 261 257 258 262 265 269 273 270 267 269 267 266 266 267 262 262 260 260 257 260 254 248 249 253 252 251
266 274 279 283 284 285 292 295 288 291 296 294 284 275 268 267 272 265 261 260 262 265 268 269 268 269 270 272 273 273 270 268 265 261 259 261 262 258 254 250 254 254 254
263 266 269 273 274 283 286 291 289 285 289 282 273 268 267 263 262 260 261 262 264 266 268 269 270 271 270 271 272 273 269 271 268 261 260 263 262 261 261 258 257 254 256
261 264 266 267 270 279 284 283 290 288 285 283 269 259 261 264 264 262 268 268 267 268 269 268 267 268 269 269 271 273 271 267 265 262 265 265 264 261 259 260 259 259 256
264 266 268 268 270 272 274 275 278 280 283 284 278 268 264 264 267 264 265 270 268 267 267 266 265 264 264 268 268 267 268 267 263 260 263 264 263 263 262 261 262 260 258
262 266 267 270 272 273 274 274 274 275 277 279 277 274 273 271 270 266 261 266 265 263 265 265 265 266 266 267 266 264 264 263 261 261 260 261 263 263 263 263 262 263 261
260 261 262 266 270 271 275 277 276 274 273 274 271 270 272 274 272 266 261 264 264 264 265 266 266 267 266 266 267 266 264 262 259 259 257 258 260 261 262 264 263 262 262
260 261 260 264 266 268 270 274 274 272 270 271 271 270 269 272 271 268 268 266 262 262 264 265 264 265 265 265 265 265 262 264 260 257 255 255 255 256 259 262 263 261 261
259 259 261 265 267 269 271 271 269 267 266 268 270 271 268 267 268 269 270 268 264 265 266 264 263 262 263 265 266 265 266 264 261 258 256 256 254 255 257 261 262 262 261
258 259 261 265 266 268 269 269 267 265 262 265 270 270 268 269 267 268 269 269 270 272 272 271 268 265 265 265 265 266 265 265 263 261 259 258 257 256 258 260 262 262 262
258 262 263 264 266 268 268 268 265 263 264 264 264 265 266 270 269 268 270 270 272 274 274 271 268 266 265 267 269 266 263 263 268 264 261 258 257 259 259 260 261 260 259
260 261 265 266 267 267 269 269 267 263 261 262 261 261 266 269 270 269 270 270 273 275 275 275 271 268 267 269 271 269 265 262 264 268 263 262 262 262 260 260 262 262 260
260 263 265 267 267 267 266 267 266 264 262 261 262 262 268 272 272 270 271 273 275 275 276 274 273 269 267 270 271 270 269 267 264 263 263 262 263 265 266 266 264 263 261
264 267 268 268 268 268 267 266 264 263 263 261 261 263 268 272 273 269 272 273 275 276 277 276 276 272 268 269 270 270 268 270 266 265 264 262 263 265 266 268 267 266 262
265 268 272 268 265 266 268 268 265 264 262 260 260 263 265 266 270 271 275 274 272 273 273 276 276 272 271 270 270 269 270 271 270 267 266 265 265 266 267 267 267 266 264
267 270 273 268 264 265 268 269 266 264 262 260 260 261 264 265 269 272 275 276 275 272 270 270 269 270 271 272 272 272 272 273 273 271 272 272 270 268 267 265 266 266 265
270 273 274 268 268 267 265 266 265 264 262 260 260 260 262 263 267 271 272 275 275 271 268 267 265 267 272 271 271 274 277 277 275 274 272 272 271 270 267 267 266 266 263
274 275 273 267 267 264 262 263 263 262 262 260 259 260 261 261 265 270 273 273 274 273 267 266 264 266 269 270 270 275 277 280 279 276 274 274 273 271 270 269 267 265 264
274 274 270 270 268 265 264 264 264 263 263 262 260 259 262 264 264 266 270 272 272 273 270 268 267 265 267 268 272 275 277 278 279 279 276 275 273 269 268 269 268 265 265
272 272 271 270 269 267 265 264 264 264 263 263 264 263 264 262 262 265 268 270 272 271 270 269 267 268 269 270 273 274 275 278 278 278 278 277 272 270 270 268 266 264 263
270 272 273 273 271 269 264 264 263 263 262 263 265 265 264 262 263 265 268 268 269 268 269 270 268 269 272 272 274 274 276 276 277 277 276 274 272 272 271 269 269 266 264
270 271 272 275 275 274 268 267 266 264 263 264 265 265 264 263 264 266 267 266 266 267 267 268 269 269 271 272 274 275 275 276 276 275 273 272 270 269 269 269 268 268 265
Height
5862 5861 5861 5861 5861 5861 5861 5861 5860 5861 5861 5861 5861 5861 5862 5864 5865 5866 5866 5866 5867 5867 5867 5868 5868 5868 5868 5869 5870 5870 5871 5871 5872 5872 5872 5872 5872 5873 5873 5874 5875 5876 5877
5861 5861 5861 5861 5861 5860 5860 5860 5860 5860 5860 5860 5860 5859 5861 5862 5864 5865 5866 5866 5866 5867 5867 5868 5868 5868 5868 5869 5869 5870 5871 5871 5871 5872 5872 5872 5873 5873 5873 5874 5875 5875 5876
5860 5860 5860 5860 5860 5860 5859 5859 5859 5859 5859 5859 5859 5858 5860 5862 5863 5864 5865 5865 5866 5866 5867 5867 5867 5868 5868 5868 5869 5869 5870 5870 5871 5871 5871 5872 5872 5873 5873 5874 5874 5875 5875
5860 5860 5860 5860 5859 5859 5859 5859 5859 5859 5858 5858 5859 5859 5860 5861 5862 5863 5864 5864 5865 5865 5866 5866 5866 5867 5867 5867 5868 5868 5869 5869 5870 5870 5871 5871 5871 5872 5872 5873 5873 5874 5874
5859 5859 5859 5859 5859 5858 5858 5858 5858 5858 5858 5858 5858 5859 5859 5860 5861 5862 5862 5863 5864 5864 5865 5865 5865 5865 5866 5866 5867 5867 5867 5868 5869 5869 5869 5870 5870 5870 5871 5871 5872 5872 5873
5859 5858 5858 5858 5858 5858 5858 5858 5857 5858 5858 5858 5857 5858 5858 5859 5860 5860 5861 5862 5862 5863 5863 5863 5864 5864 5864 5865 5865 5865 5866 5866 5867 5868 5868 5868 5869 5869 5870 5870 5870 5871 5871
5858 5857 5857 5857 5857 5857 5857 5857 5857 5857 5857 5857 5857 5857 5857 5858 5858 5859 5860 5860 5860 5861 5861 5862 5862 5862 5863 5863 5863 5864 5864 5865 5865 5866 5866 5867 5867 5867 5868 5868 5869 5869 5870
5856 5856 5856 5856 5856 5856 5856 5856 5855 5855 5856 5856 5856 5856 5856 5856 5857 5858 5858 5858 5859 5859 5859 5860 5860 5861 5861 5861 5861 5862 5862 5863 5863 5864 5864 5865 5865 5865 5866 5866 5867 5867 5868
5855 5855 5855 5855 5855 5855 5855 5854 5854 5854 5854 5854 5854 5855 5855 5855 5856 5856 5856 5857 5857 5857 5858 5858 5858 5859 5859 5859 5859 5860 5860 5860 5861 5861 5862 5863 5863 5863 5864 5864 5865 5865 5866
5853 5853 5853 5853 5853 5853 5853 5853 5853 5853 5853 5853 5853 5853 5853 5853 5854 5854 5854 5855 5855 5855 5856 5856 5856 5856 5857 5857 5857 5857 5858 5858 5859 5859 5860 5860 5861 5861 5862 5862 5863 5863 5864
5852 5852 5852 5852 5852 5852 5852 5851 5851 5851 5851 5851 5851 5852 5852 5852 5852 5852 5852 5852 5853 5853 5854 5854 5854 5854 5854 5854 5855 5855 5855 5856 5856 5857 5857 5858 5858 5859 5859 5860 5860 5861 5861
5850 5850 5850 5850 5850 5850 5850 5850 5850 5850 5850 5850 5850 5850 5850 5850 5850 5850 5850 5850 5851 5851 5851 5851 5851 5852 5852 5852 5852 5853 5853 5853 5854 5854 5855 5855 5856 5856 5857 5857 5858 5858 5859
5848 5848 5848 5848 5848 5848 5848 5848 5848 5848 5848 5848 5848 5848 5848 5848 5848 5848 5848 5849 5849 5849 5849 5849 5849 5849 5850 5850 5850 5850 5850 5851 5851 5852 5852 5853 5853 5854 5854 5855 5855 5855 5856
5845 5846 5846 5846 5846 5846 5846 5846 5846 5846 5846 5846 5846 5846 5846 5846 5846 5846 5846 5846 5846 5846 5846 5846 5847 5847 5847 5848 5848 5848 5848 5848 5849 5849 5849 5850 5850 5851 5852 5852 5852 5852 5853
5843 5843 5843 5844 5843 5843 5843 5844 5844 5844 5844 5844 5844 5844 5844 5844 5844 5844 5844 5844 5844 5844 5844 5844 5844 5845 5845 5845 5845 5846 5846 5846 5846 5845 5846 5847 5847 5848 5849 5849 5849 5850 5850
5841 5841 5841 5841 5841 5841 5841 5841 5842 5842 5842 5842 5842 5842 5842 5842 5842 5842 5842 5842 5842 5842 5842 5842 5842 5842 5843 5843 5843 5843 5843 5843 5843 5843 5843 5844 5844 5845 5845 5845 5846 5846 5847
5839 5839 5839 5839 5839 5839 5839 5839 5839 5839 5839 5839 5839 5839 5840 5840 5840 5840 5840 5840 5840 5840 5840 5840 5840 5840 5840 5840 5840 5840 5841 5840 5841 5841 5841 5841 5841 5841 5842 5842 5842 5843 5843
5836 5836 5836 5836 5837 5837 5837 5837 5837 5837 5837 5837 5837 5837 5837 5837 5837 5838 5838 5838 5838 5837 5837 5837 5837 5837 5838 5838 5838 5838 5838 5838 5838 5838 5838 5838 5838 5838 5838 5838 5839 5839 5840
5834 5833 5834 5833 5834 5834 5834 5834 5834 5834 5834 5834 5834 5834 5835 5835 5835 5835 5836 5836 5836 5835 5835 5835 5835 5835 5835 5835 5835 5835 5835 5835 5835 5835 5835 5835 5835 5835 5835 5835 5835 5836 5836
5831 5831 5831 5831 5831 5831 5831 5831 5831 5831 5831 5831 5831 5832 5832 5832 5832 5833 5833 5833 5833 5833 5833 5833 5833 5833 5833 5833 5832 5832 5832 5832 5832 5832 5832 5831 5831 5832 5832 5832 5832 5832 5832
5828 5828 5828 5828 5828 5828 5828 5828 5828 5828 5828 5828 5829 5829 5829 5829 5830 5830 5830 5830 5830 5830 5830 5830 5830 5830 5830 5830 5830 5829 5829 5829 5829 5828 5828 5828 5828 5828 5828 5828 5829 5829 5829
5825 5824 5824 5824 5824 5824 5824 5825 5825 5825 5825 5825 5826 5826 5826 5826 5827 5827 5827 5827 5827 5827 5827 5827 5827 5827 5827 5827 5827 5826 5826 5826 5825 5825 5824 5824 5824 5824 5824 5824 5825 5825 5826
5821 5821 5821 5821 5820 5820 5821 5821 5821 5821 5821 5822 5822 5823 5823 5823 5823 5823 5824 5824 5824 5824 5824 5824 5823 5823 5823 5823 5823 5823 5822 5822 5821 5821 5820 5820 5820 5820 5820 5821 5821 5821 5822
5818 5818 5817 5817 5817 5816 5817 5817 5817 5817 5818 5818 5818 5819 5819 5819 5819 5820 5820 5820 5820 5820 5820 5820 5820 5820 5820 5819 5819 5819 5819 5818 5818 5817 5817 5816 5816 5816 5816 5817 5817 5817 5817
5814 5814 5814 5813 5813 5812 5812 5812 5813 5813 5813 5813 5814 5814 5814 5815 5815 5815 5815 5815 5816 5816 5816 5816 5816 5816 5815 5815 5815 5815 5814 5814 5813 5813 5813 5812 5812 5812 5812 5813 5813 5813 5813
5810 5810 5810 5809 5809 5808 5808 5808 5808 5808 5808 5809 5809 5809 5809 5810 5810 5810 5810 5811 5811 5811 5811 5811 5811 5811 5811 5811 5811 5810 5810 5809 5808 5808 5808 5808 5808 5808 5808 5808 5808 5809 5809